Tracking 19562 objects as of 24-Mar-2019
HD Live streaming from Space Station
objects crossing your sky now

MARISAT 1

Track MARISAT 1 now!
MARISAT 1 is classified as:


NORAD ID: 8697
Int'l Code: 1976-017A
Perigee: 36,056.4 km
Apogee: 36,135.6 km
Inclination: 11.7 °
Period: 1,451.6 minutes
Semi major axis: 42466 km
RCS: 5.8066 m2 (large)
Launch date: February 19, 1976
Source: United States (US)
Launch site: AIR FORCE EASTERN TEST RANGE (AFETR)
aabbcc
Your satellite tracking list
Your tracking list is empty




NASA's NSSDC Master Catalog

Two Line Element Set (TLE):
1  8697U 76017A   19082.67863098 +.00000040 +00000-0 +00000-0 0  9992
2  8697 011.6600 319.7797 0009322 114.3952 061.7175 00.99203157155880
Source of the keplerian elements: AFSPC